UPS144 KMCO-KSDF

Flight info

Callsign UPS144
Flight time 1h 45m
Altitude 40000
Route JEEMY4 PAINN SHRKS WIGVO GLAZR LEDDL1
Aircraft B748/H-VGDW/C

Departure

Time 2026-04-22 01:32
Airport Orlando International Airport (KMCO)

Arrival

Time 2026-04-22 03:17
Airport Louisville Muhammad Ali International Airport (KSDF)
Time Latitude Longitude Altitude Speed Heading
2026-04-22 00:56 28.43416 -81.33135 110 ft 0 kts 270°
2026-04-22 01:21 28.43415 -81.33114 110 ft 4 kts 272°
2026-04-22 01:22 28.43415 -81.33094 110 ft 3 kts 237°
2026-04-22 01:22 28.43427 -81.33075 110 ft 4 kts 211°
2026-04-22 01:22 28.43446 -81.33068 110 ft 4 kts 179°
2026-04-22 01:22 28.43469 -81.33069 110 ft 1 kts 179°
2026-04-22 01:25 28.43463 -81.33069 110 ft 7 kts 181°
2026-04-22 01:25 28.43389 -81.33066 110 ft 9 kts 169°
2026-04-22 01:25 28.43356 -81.33012 110 ft 9 kts 96°
2026-04-22 01:26 28.43335 -81.32949 110 ft 9 kts 137°
2026-04-22 01:26 28.43278 -81.32930 110 ft 11 kts 173°
2026-04-22 01:26 28.43168 -81.32924 110 ft 21 kts 179°
2026-04-22 01:26 28.42996 -81.32921 110 ft 27 kts 180°
2026-04-22 01:27 28.42818 -81.32921 110 ft 24 kts 180°
2026-04-22 01:27 28.42657 -81.32919 110 ft 23 kts 179°
2026-04-22 01:27 28.42481 -81.32914 110 ft 27 kts 178°
2026-04-22 01:27 28.42285 -81.32914 110 ft 30 kts 181°
2026-04-22 01:28 28.42087 -81.32915 110 ft 27 kts 179°
2026-04-22 01:28 28.41907 -81.32910 110 ft 24 kts 179°
2026-04-22 01:28 28.41745 -81.32908 110 ft 23 kts 181°
2026-04-22 01:28 28.41611 -81.32909 110 ft 9 kts 178°
2026-04-22 01:29 28.41554 -81.32883 110 ft 11 kts 130°
2026-04-22 01:29 28.41541 -81.32812 110 ft 0 kts 91°
2026-04-22 01:29 28.41541 -81.32801 110 ft 10 kts 89°
2026-04-22 01:30 28.41558 -81.32688 110 ft 11 kts 44°
2026-04-22 01:30 28.41620 -81.32665 110 ft 0 kts 358°
2026-04-22 01:31 28.41679 -81.32668 110 ft 35 kts 358°
2026-04-22 01:31 28.42219 -81.32670 110 ft 119 kts 359°
2026-04-22 01:31 28.43301 -81.32676 186 ft 184 kts
2026-04-22 01:32 28.44648 -81.32706 976 ft 195 kts
2026-04-22 01:32 28.46020 -81.32723 2043 ft 201 kts
2026-04-22 01:32 28.47460 -81.32738 2604 ft 219 kts
2026-04-22 01:32 28.49071 -81.32752 2999 ft 243 kts
2026-04-22 01:33 28.50799 -81.32761 3817 ft 249 kts
2026-04-22 01:33 28.52500 -81.32773 5058 ft 241 kts
2026-04-22 01:33 28.54165 -81.32786 6218 ft 236 kts
2026-04-22 01:33 28.55284 -81.32833 6616 ft 254 kts 358°
2026-04-22 01:34 28.57111 -81.33044 6903 ft 269 kts 355°
2026-04-22 01:34 28.58997 -81.33316 6978 ft 277 kts 354°
2026-04-22 01:34 28.60902 -81.33591 7008 ft 275 kts 354°
2026-04-22 01:34 28.62794 -81.33890 7011 ft 273 kts 352°
2026-04-22 01:35 28.64665 -81.34320 7291 ft 280 kts 349°
2026-04-22 01:35 28.66547 -81.34835 8439 ft 276 kts 348°
2026-04-22 01:35 28.68433 -81.35348 9439 ft 281 kts 348°
2026-04-22 01:35 28.70347 -81.35850 10414 ft 285 kts 348°
2026-04-22 01:36 28.72338 -81.36366 11034 ft 304 kts 348°
2026-04-22 01:36 28.74508 -81.36929 11281 ft 335 kts 348°
2026-04-22 01:36 28.76606 -81.37415 11499 ft 362 kts 350°
2026-04-22 01:36 28.79136 -81.37926 12232 ft 375 kts 351°
2026-04-22 01:37 28.81726 -81.38447 13230 ft 380 kts 350°
2026-04-22 01:37 28.84343 -81.38989 14272 ft 384 kts 349°
2026-04-22 01:37 28.86960 -81.39538 15221 ft 389 kts 349°
2026-04-22 01:37 28.89647 -81.40105 15697 ft 392 kts 349°
2026-04-22 01:38 28.92346 -81.40674 16406 ft 395 kts 349°
2026-04-22 01:38 28.94759 -81.41179 17244 ft 400 kts 349°
2026-04-22 01:38 28.97543 -81.41608 18114 ft 406 kts 352°
2026-04-22 01:38 29.00372 -81.41900 18998 ft 410 kts 354°
2026-04-22 01:39 29.03232 -81.42179 19826 ft 415 kts 353°
2026-04-22 01:39 29.06089 -81.42489 20637 ft 420 kts 352°
2026-04-22 01:39 29.09014 -81.42812 21432 ft 424 kts 352°
2026-04-22 01:39 29.11647 -81.43096 22097 ft 430 kts 352°
2026-04-22 01:40 29.14641 -81.43374 22871 ft 434 kts 352°
2026-04-22 01:40 29.17664 -81.43653 23655 ft 437 kts 352°
2026-04-22 01:40 29.20714 -81.43939 24379 ft 442 kts 352°
2026-04-22 01:40 29.23793 -81.44230 25113 ft 445 kts 351°
2026-04-22 01:41 29.26897 -81.44523 25806 ft 449 kts 351°
2026-04-22 01:41 29.30030 -81.44819 26486 ft 452 kts 351°
2026-04-22 01:41 29.33176 -81.45118 27110 ft 456 kts 351°
2026-04-22 01:41 29.36351 -81.45420 27695 ft 459 kts 351°
2026-04-22 01:42 29.39549 -81.45726 28255 ft 463 kts 351°
2026-04-22 01:42 29.42767 -81.46033 28828 ft 465 kts 351°
2026-04-22 01:42 29.46004 -81.46343 29311 ft 468 kts 351°
2026-04-22 01:42 29.49260 -81.46654 29768 ft 471 kts 351°
2026-04-22 01:43 29.52497 -81.46964 30206 ft 473 kts 351°
2026-04-22 01:43 29.55790 -81.47278 30632 ft 475 kts 351°
2026-04-22 01:43 29.59101 -81.47594 31023 ft 478 kts 351°
2026-04-22 01:43 29.62412 -81.47890 31641 ft 474 kts 351°
2026-04-22 01:44 29.65681 -81.48184 32297 ft 469 kts 351°
2026-04-22 01:44 29.68926 -81.48478 32795 ft 468 kts 351°
2026-04-22 01:44 29.72171 -81.48773 33227 ft 467 kts 350°
2026-04-22 01:44 29.75406 -81.49067 33690 ft 465 kts 350°
2026-04-22 01:45 29.78620 -81.49359 34147 ft 462 kts 350°
2026-04-22 01:45 29.81788 -81.49648 34476 ft 463 kts 350°
2026-04-22 01:45 29.84998 -81.49940 34812 ft 463 kts 350°
2026-04-22 01:45 29.88189 -81.50320 35138 ft 459 kts 345°
2026-04-22 01:46 29.91306 -81.51085 35448 ft 455 kts 341°
2026-04-22 01:46 29.94356 -81.52063 35746 ft 453 kts 338°
2026-04-22 01:46 29.97362 -81.53156 36018 ft 453 kts 337°
2026-04-22 01:46 30.00360 -81.54282 36348 ft 452 kts 337°
2026-04-22 01:47 30.03364 -81.55392 36639 ft 452 kts 337°
2026-04-22 01:47 30.06367 -81.56487 36895 ft 453 kts 337°
2026-04-22 01:47 30.09371 -81.57574 37199 ft 452 kts 337°
2026-04-22 01:47 30.12374 -81.58656 37440 ft 452 kts 337°
2026-04-22 01:48 30.15339 -81.59724 37665 ft 453 kts 337°
2026-04-22 01:48 30.18383 -81.60818 37970 ft 451 kts 337°
2026-04-22 01:48 30.21345 -81.61884 38179 ft 452 kts 337°
2026-04-22 01:48 30.24349 -81.62957 38407 ft 452 kts 337°
2026-04-22 01:49 30.27363 -81.64035 38606 ft 452 kts 337°
2026-04-22 01:49 30.30363 -81.65111 38871 ft 451 kts 337°
2026-04-22 01:49 30.33369 -81.66186 39021 ft 452 kts 337°
2026-04-22 01:49 30.36375 -81.67265 39210 ft 452 kts 336°
2026-04-22 01:50 30.39379 -81.68346 39388 ft 452 kts 336°
2026-04-22 01:50 30.42386 -81.69431 39560 ft 452 kts 336°
2026-04-22 01:50 30.45380 -81.70513 39790 ft 450 kts 336°
2026-04-22 01:50 30.48374 -81.71595 39914 ft 451 kts 336°
2026-04-22 01:51 30.51368 -81.72679 40053 ft 451 kts 336°
2026-04-22 01:51 30.54330 -81.73751 40185 ft 451 kts 336°
2026-04-22 01:51 30.57325 -81.74835 40303 ft 451 kts 336°
2026-04-22 01:51 30.60322 -81.75918 40323 ft 452 kts 337°
2026-04-22 01:52 30.66520 -81.77385 40327 ft 457 kts 345°
2026-04-22 01:52 30.72867 -81.78275 40329 ft 460 kts 346°
2026-04-22 01:53 30.79229 -81.79145 40331 ft 460 kts 346°
2026-04-22 01:53 30.85543 -81.80047 40335 ft 459 kts 346°
2026-04-22 01:54 30.91882 -81.80967 40343 ft 458 kts 346°
2026-04-22 01:54 30.98199 -81.81888 40349 ft 457 kts 346°
2026-04-22 01:55 31.04509 -81.82808 40359 ft 457 kts 346°
2026-04-22 01:55 31.10825 -81.83733 40363 ft 457 kts 346°
2026-04-22 01:56 31.17132 -81.84659 40362 ft 456 kts 346°
2026-04-22 01:56 31.23421 -81.85585 40361 ft 455 kts 346°
2026-04-22 01:57 31.29699 -81.86510 40367 ft 455 kts 346°
2026-04-22 01:57 31.35937 -81.87431 40370 ft 454 kts 346°
2026-04-22 01:58 31.42206 -81.88357 40374 ft 454 kts 346°
2026-04-22 01:58 31.48475 -81.89285 40377 ft 454 kts 346°
2026-04-22 01:59 31.54745 -81.90214 40380 ft 454 kts 346°
2026-04-22 01:59 31.61016 -81.91145 40379 ft 454 kts 346°
2026-04-22 02:00 31.67278 -81.92075 40374 ft 453 kts 346°
2026-04-22 02:00 31.73510 -81.93003 40368 ft 453 kts 346°
2026-04-22 02:01 31.79769 -81.93935 40361 ft 453 kts 346°
2026-04-22 02:01 31.86035 -81.94870 40362 ft 453 kts 346°
2026-04-22 02:02 31.92298 -81.95806 40361 ft 453 kts 346°
2026-04-22 02:02 31.98537 -81.96739 40355 ft 453 kts 346°
2026-04-22 02:03 32.04797 -81.97677 40356 ft 453 kts 346°
2026-04-22 02:03 32.11057 -81.98617 40359 ft 453 kts 346°
2026-04-22 02:04 32.20069 -81.99966 40363 ft 453 kts 346°
2026-04-22 02:05 32.26330 -82.00910 40363 ft 453 kts 346°
2026-04-22 02:05 32.32584 -82.01854 40361 ft 453 kts 346°
2026-04-22 02:06 32.38844 -82.02801 40360 ft 454 kts 346°
2026-04-22 02:06 32.45018 -82.04076 40363 ft 445 kts 334°
2026-04-22 02:07 32.50638 -82.07026 40359 ft 439 kts 327°
2026-04-22 02:07 32.55940 -82.10471 40361 ft 436 kts 325°
2026-04-22 02:08 32.61221 -82.14007 40363 ft 435 kts 325°
2026-04-22 02:08 32.66509 -82.17523 40362 ft 436 kts 325°
2026-04-22 02:09 32.71811 -82.21038 40356 ft 436 kts 325°
2026-04-22 02:09 32.77123 -82.24549 40355 ft 437 kts 325°
2026-04-22 02:10 32.82446 -82.28046 40355 ft 437 kts 325°
2026-04-22 02:10 32.87766 -82.31558 40355 ft 438 kts 325°
2026-04-22 02:11 32.93050 -82.35055 40355 ft 438 kts 325°
2026-04-22 02:11 32.98376 -82.38587 40358 ft 438 kts 325°
2026-04-22 02:12 33.03710 -82.42130 40359 ft 438 kts 325°
2026-04-22 02:12 33.09040 -82.45675 40362 ft 438 kts 325°
2026-04-22 02:13 33.14363 -82.49222 40368 ft 438 kts 325°
2026-04-22 02:13 33.19689 -82.52776 40371 ft 438 kts 325°
2026-04-22 02:14 33.25012 -82.56332 40380 ft 438 kts 325°
2026-04-22 02:14 33.30310 -82.59877 40382 ft 438 kts 325°
2026-04-22 02:15 33.35630 -82.63442 40385 ft 438 kts 325°
2026-04-22 02:15 33.40950 -82.67011 40383 ft 438 kts 325°
2026-04-22 02:16 33.46271 -82.70586 40383 ft 438 kts 325°
2026-04-22 02:16 33.51550 -82.74139 40380 ft 438 kts 325°
2026-04-22 02:17 33.56866 -82.77720 40375 ft 439 kts 325°
2026-04-22 02:17 33.62192 -82.81314 40366 ft 439 kts 325°
2026-04-22 02:18 33.67520 -82.84915 40357 ft 440 kts 325°
2026-04-22 02:18 33.72852 -82.88523 40353 ft 439 kts 325°
2026-04-22 02:19 33.78180 -82.92134 40352 ft 440 kts 325°
2026-04-22 02:19 33.83529 -82.95764 40350 ft 441 kts 325°
2026-04-22 02:20 33.87972 -82.98784 40349 ft 441 kts 325°
2026-04-22 02:20 33.94178 -83.03007 40347 ft 441 kts 325°
2026-04-22 02:21 33.99537 -83.06660 40349 ft 443 kts 325°
2026-04-22 02:21 34.04002 -83.09708 40348 ft 443 kts 325°
2026-04-22 02:22 34.09367 -83.13375 40348 ft 444 kts 325°
2026-04-22 02:22 34.14738 -83.17051 40347 ft 444 kts 325°
2026-04-22 02:23 34.20107 -83.20732 40349 ft 444 kts 325°
2026-04-22 02:23 34.25472 -83.24415 40350 ft 444 kts 325°
2026-04-22 02:24 34.30845 -83.28109 40351 ft 444 kts 325°
2026-04-22 02:24 34.36233 -83.31819 40352 ft 445 kts 325°
2026-04-22 02:25 34.41578 -83.35505 40353 ft 445 kts 325°
2026-04-22 02:25 34.46971 -83.39229 40353 ft 445 kts 325°
2026-04-22 02:26 34.52357 -83.42954 40354 ft 445 kts 325°
2026-04-22 02:26 34.57733 -83.46678 40354 ft 445 kts 325°
2026-04-22 02:27 34.63079 -83.50387 40355 ft 445 kts 325°
2026-04-22 02:27 34.68458 -83.54124 40357 ft 445 kts 325°
2026-04-22 02:28 34.73842 -83.57870 40359 ft 445 kts 325°
2026-04-22 02:28 34.79215 -83.61614 40363 ft 445 kts 325°
2026-04-22 02:29 34.84578 -83.65358 40367 ft 445 kts 325°
2026-04-22 02:29 34.89945 -83.69109 40368 ft 445 kts 325°
2026-04-22 02:30 34.95309 -83.72864 40368 ft 444 kts 325°
2026-04-22 02:30 35.00640 -83.76602 40367 ft 445 kts 325°
2026-04-22 02:31 35.06003 -83.80368 40365 ft 445 kts 325°
2026-04-22 02:31 35.11362 -83.84137 40362 ft 444 kts 325°
2026-04-22 02:32 35.16723 -83.87913 40360 ft 444 kts 325°
2026-04-22 02:32 35.22082 -83.91693 40360 ft 445 kts 325°
2026-04-22 02:33 35.27457 -83.95491 40356 ft 445 kts 325°
2026-04-22 02:33 35.32778 -83.99256 40348 ft 444 kts 325°
2026-04-22 02:34 35.38138 -84.03055 40327 ft 445 kts 325°
2026-04-22 02:34 35.43508 -84.06867 40314 ft 445 kts 325°
2026-04-22 02:35 35.48870 -84.10678 40304 ft 445 kts 325°
2026-04-22 02:35 35.54226 -84.14492 40298 ft 445 kts 325°
2026-04-22 02:36 35.59585 -84.18313 40292 ft 445 kts 325°
2026-04-22 02:36 35.64904 -84.22112 40289 ft 445 kts 325°
2026-04-22 02:37 35.70256 -84.25941 40289 ft 445 kts 325°
2026-04-22 02:37 35.75620 -84.29785 40295 ft 445 kts 325°
2026-04-22 02:38 35.80958 -84.33615 40295 ft 445 kts 325°
2026-04-22 02:38 35.86299 -84.37454 40289 ft 445 kts 325°
2026-04-22 02:39 35.91659 -84.41313 40294 ft 445 kts 325°
2026-04-22 02:39 35.97014 -84.45174 40293 ft 445 kts 325°
2026-04-22 02:40 36.02319 -84.49005 40293 ft 445 kts 325°
2026-04-22 02:40 36.07665 -84.52872 40288 ft 445 kts 325°
2026-04-22 02:41 36.13014 -84.56747 40284 ft 445 kts 325°
2026-04-22 02:41 36.15690 -84.58678 39907 ft 443 kts 325°
2026-04-22 02:41 36.18347 -84.60595 39129 ft 440 kts 325°
2026-04-22 02:41 36.20983 -84.62506 38172 ft 440 kts 325°
2026-04-22 02:42 36.23627 -84.64430 37134 ft 441 kts 325°
2026-04-22 02:42 36.26279 -84.66364 35979 ft 443 kts 324°
2026-04-22 02:42 36.28942 -84.68308 34773 ft 446 kts 324°
2026-04-22 02:42 36.31621 -84.70265 33644 ft 446 kts 324°
2026-04-22 02:43 36.34247 -84.72184 32824 ft 439 kts 324°
2026-04-22 02:43 36.36857 -84.74093 32051 ft 432 kts 324°
2026-04-22 02:43 36.39435 -84.75945 31254 ft 428 kts 328°
2026-04-22 02:43 36.42281 -84.77117 30399 ft 435 kts 344°
2026-04-22 02:44 36.45281 -84.77555 29698 ft 432 kts 349°
2026-04-22 02:44 36.48277 -84.77709 28856 ft 430 kts 354°
2026-04-22 02:44 36.51270 -84.77633 27969 ft 429 kts 356°
2026-04-22 02:44 36.54243 -84.77429 27127 ft 426 kts 358°
2026-04-22 02:45 36.57191 -84.77198 26465 ft 422 kts 358°
2026-04-22 02:45 36.60113 -84.76995 26174 ft 420 kts 358°
2026-04-22 02:45 36.63055 -84.76805 25842 ft 420 kts 358°
2026-04-22 02:45 36.65967 -84.76623 25513 ft 418 kts 358°
2026-04-22 02:46 36.68827 -84.76447 25188 ft 416 kts 358°
2026-04-22 02:46 36.71718 -84.76272 24856 ft 415 kts 358°
2026-04-22 02:46 36.74602 -84.76097 24524 ft 413 kts 358°
2026-04-22 02:46 36.77468 -84.75924 24194 ft 411 kts 358°
2026-04-22 02:47 36.80321 -84.75751 23865 ft 409 kts 358°
2026-04-22 02:47 36.83158 -84.75580 23539 ft 407 kts 358°
2026-04-22 02:47 36.85980 -84.75409 23213 ft 405 kts 358°
2026-04-22 02:47 36.88785 -84.75350 22886 ft 401 kts 352°
2026-04-22 02:48 36.91537 -84.75791 22564 ft 396 kts 346°
2026-04-22 02:48 36.94217 -84.76499 22245 ft 391 kts 342°
2026-04-22 02:48 36.96846 -84.77352 21925 ft 389 kts 341°
2026-04-22 02:48 36.99455 -84.78266 21606 ft 387 kts 340°
2026-04-22 02:49 37.02011 -84.79152 21296 ft 385 kts 341°
2026-04-22 02:49 37.04591 -84.80030 20984 ft 383 kts 341°
2026-04-22 02:49 37.07157 -84.80892 20674 ft 381 kts 341°
2026-04-22 02:49 37.09721 -84.81748 20365 ft 380 kts 341°
2026-04-22 02:50 37.12270 -84.82596 20060 ft 378 kts 341°
2026-04-22 02:50 37.14811 -84.83433 19757 ft 376 kts 341°
2026-04-22 02:50 37.17341 -84.84262 19452 ft 375 kts 341°
2026-04-22 02:50 37.19862 -84.85092 19157 ft 373 kts 341°
2026-04-22 02:51 37.22363 -84.85921 18861 ft 371 kts 341°
2026-04-22 02:51 37.24858 -84.86749 18565 ft 370 kts 341°
2026-04-22 02:51 37.27341 -84.87575 18270 ft 368 kts 341°
2026-04-22 02:51 37.29810 -84.88397 17976 ft 366 kts 341°
2026-04-22 02:52 37.32271 -84.89217 17604 ft 366 kts 341°
2026-04-22 02:52 37.34715 -84.90031 17250 ft 360 kts 341°
2026-04-22 02:52 37.37140 -84.90840 16946 ft 360 kts 341°
2026-04-22 02:52 37.39564 -84.91648 16648 ft 360 kts 341°
2026-04-22 02:53 37.41980 -84.92453 16355 ft 358 kts 341°
2026-04-22 02:53 37.44313 -84.93470 16061 ft 353 kts 329°
2026-04-22 02:53 37.46402 -84.95056 15780 ft 348 kts 323°
2026-04-22 02:53 37.48335 -84.96863 15497 ft 344 kts 318°
2026-04-22 02:54 37.50151 -84.98815 15218 ft 343 kts 315°
2026-04-22 02:54 37.51923 -85.00812 14942 ft 341 kts 315°
2026-04-22 02:54 37.53711 -85.02768 14669 ft 338 kts 316°
2026-04-22 02:54 37.55452 -85.04642 14403 ft 329 kts 316°
2026-04-22 02:55 37.57246 -85.06386 14138 ft 324 kts 325°
2026-04-22 02:55 37.59262 -85.07626 13959 ft 326 kts 333°
2026-04-22 02:55 37.61414 -85.08621 13540 ft 329 kts 337°
2026-04-22 02:55 37.63595 -85.09444 13221 ft 327 kts 339°
2026-04-22 02:56 37.65793 -85.10226 12900 ft 327 kts 339°
2026-04-22 02:56 37.67957 -85.11036 12585 ft 321 kts 338°
2026-04-22 02:56 37.70076 -85.11851 12277 ft 315 kts 338°
2026-04-22 02:56 37.72154 -85.12653 11980 ft 310 kts 338°
2026-04-22 02:57 37.74202 -85.13442 11685 ft 305 kts 338°
2026-04-22 02:57 37.76234 -85.14165 11394 ft 301 kts 339°
2026-04-22 02:57 37.78236 -85.14870 11113 ft 296 kts 339°
2026-04-22 02:57 37.80209 -85.15572 10833 ft 292 kts 338°
2026-04-22 02:58 37.82147 -85.16268 10560 ft 288 kts 338°
2026-04-22 02:58 37.84058 -85.16954 10286 ft 283 kts 338°
2026-04-22 02:58 37.85918 -85.17621 10020 ft 280 kts 338°
2026-04-22 02:58 37.87779 -85.18290 9752 ft 275 kts 337°
2026-04-22 02:59 37.89610 -85.18950 9490 ft 271 kts 337°
2026-04-22 02:59 37.91429 -85.19605 9233 ft 273 kts 336°
2026-04-22 02:59 37.93259 -85.20263 8971 ft 273 kts 336°
2026-04-22 02:59 37.95059 -85.20996 8702 ft 269 kts 328°
2026-04-22 03:00 37.96641 -85.22192 8447 ft 261 kts 317°
2026-04-22 03:00 37.98037 -85.23620 8199 ft 256 kts 312°
2026-04-22 03:00 37.99328 -85.25164 7951 ft 254 kts 309°
2026-04-22 03:00 38.00584 -85.26710 7714 ft 254 kts 309°
2026-04-22 03:01 38.01869 -85.28234 7469 ft 251 kts 310°
2026-04-22 03:01 38.03151 -85.29737 7232 ft 252 kts 309°
2026-04-22 03:01 38.04439 -85.31246 7018 ft 250 kts 309°
2026-04-22 03:01 38.05727 -85.32734 6938 ft 251 kts 310°
2026-04-22 03:02 38.07022 -85.34231 6859 ft 252 kts 310°
2026-04-22 03:02 38.08312 -85.35729 6777 ft 251 kts 309°
2026-04-22 03:02 38.09597 -85.37223 6697 ft 250 kts 309°
2026-04-22 03:02 38.10881 -85.38722 6619 ft 251 kts 309°
2026-04-22 03:03 38.12161 -85.40218 6541 ft 249 kts 309°
2026-04-22 03:03 38.13450 -85.41730 6470 ft 254 kts 309°
2026-04-22 03:03 38.14715 -85.43213 6393 ft 247 kts 309°
2026-04-22 03:03 38.15989 -85.44706 6316 ft 252 kts 309°
2026-04-22 03:04 38.17286 -85.46221 6245 ft 252 kts 309°
2026-04-22 03:04 38.18555 -85.47704 6176 ft 245 kts 309°
2026-04-22 03:04 38.19832 -85.49198 6093 ft 254 kts 309°
2026-04-22 03:04 38.21131 -85.50725 6024 ft 254 kts 309°
2026-04-22 03:05 38.22422 -85.52228 6011 ft 251 kts 309°
2026-04-22 03:05 38.23702 -85.53722 5996 ft 249 kts 309°
2026-04-22 03:05 38.24976 -85.55214 5991 ft 249 kts 309°
2026-04-22 03:05 38.26254 -85.56712 5990 ft 249 kts 309°
2026-04-22 03:06 38.27510 -85.58188 5992 ft 250 kts 309°
2026-04-22 03:06 38.28790 -85.59693 5989 ft 251 kts 309°
2026-04-22 03:06 38.30069 -85.61201 5982 ft 250 kts 309°
2026-04-22 03:06 38.31343 -85.62701 5988 ft 250 kts 309°
2026-04-22 03:07 38.32621 -85.64205 5992 ft 251 kts 309°
2026-04-22 03:07 38.33904 -85.65715 5979 ft 250 kts 309°
2026-04-22 03:07 38.35247 -85.67144 5983 ft 255 kts 319°
2026-04-22 03:07 38.36863 -85.68119 5985 ft 257 kts 330°
2026-04-22 03:08 38.37979 -85.68576 5978 ft 251 kts 334°
2026-04-22 03:08 38.39652 -85.69148 5971 ft 246 kts 337°
2026-04-22 03:08 38.41319 -85.69612 5976 ft 245 kts 339°
2026-04-22 03:08 38.43010 -85.69981 5971 ft 248 kts 342°
2026-04-22 03:09 38.44738 -85.70270 5823 ft 252 kts 344°
2026-04-22 03:09 38.46414 -85.70821 5419 ft 244 kts 323°
2026-04-22 03:09 38.47584 -85.72233 4936 ft 227 kts 294°
2026-04-22 03:09 38.47960 -85.74127 4444 ft 219 kts 268°
2026-04-22 03:10 38.47830 -85.76024 4160 ft 209 kts 260°
2026-04-22 03:10 38.47529 -85.77800 4090 ft 203 kts 245°
2026-04-22 03:10 38.46596 -85.79120 4039 ft 206 kts 215°
2026-04-22 03:10 38.45258 -85.79801 3975 ft 209 kts 203°
2026-04-22 03:11 38.43860 -85.80296 3968 ft 209 kts 201°
2026-04-22 03:11 38.42508 -85.80723 3964 ft 193 kts 200°
2026-04-22 03:11 38.41219 -85.81123 3961 ft 190 kts 200°
2026-04-22 03:11 38.39976 -85.81502 3957 ft 174 kts 200°
2026-04-22 03:12 38.38783 -85.81612 3956 ft 175 kts 184°
2026-04-22 03:12 38.36363 -85.80834 3990 ft 182 kts 173°
2026-04-22 03:12 38.35156 -85.80372 3861 ft 181 kts 174°
2026-04-22 03:13 38.33949 -85.79942 3598 ft 175 kts 174°
2026-04-22 03:13 38.32815 -85.79554 3376 ft 161 kts 175°
2026-04-22 03:13 38.31783 -85.79209 3155 ft 146 kts 176°
2026-04-22 03:13 38.30824 -85.78889 2983 ft 140 kts 176°
2026-04-22 03:14 38.29885 -85.78578 2817 ft 140 kts 176°
2026-04-22 03:14 38.28942 -85.78265 2607 ft 140 kts 176°
2026-04-22 03:14 38.27998 -85.77952 2408 ft 140 kts 175°
2026-04-22 03:14 38.27055 -85.77640 2224 ft 140 kts 175°
2026-04-22 03:15 38.26111 -85.77327 2034 ft 140 kts 174°
2026-04-22 03:15 38.25176 -85.77019 1851 ft 141 kts 173°
2026-04-22 03:15 38.24215 -85.76701 1663 ft 143 kts 172°
2026-04-22 03:15 38.23243 -85.76379 1472 ft 145 kts 171°
2026-04-22 03:16 38.22265 -85.76056 1281 ft 145 kts 170°
2026-04-22 03:16 38.21295 -85.75736 1089 ft 144 kts 168°
2026-04-22 03:16 38.20331 -85.75417 896 ft 142 kts 166°
2026-04-22 03:16 38.19371 -85.75100 707 ft 142 kts 166°
2026-04-22 03:17 38.18413 -85.74784 532 ft 142 kts 165°
2026-04-22 03:17 38.17565 -85.74502 515 ft 104 kts 165°
2026-04-22 03:17 38.17048 -85.74327 515 ft 34 kts 163°
2026-04-22 03:17 38.16915 -85.74236 515 ft 11 kts 141°
2026-04-22 03:18 38.16900 -85.74213 515 ft 0 kts 120°
2026-04-22 03:18 38.16892 -85.74195 515 ft 12 kts 119°
2026-04-22 03:18 38.16858 -85.74039 515 ft 15 kts 94°
2026-04-22 03:18 38.16839 -85.73936 515 ft 8 kts 106°
2026-04-22 03:19 38.16846 -85.73879 515 ft 7 kts 51°
2026-04-22 03:19 38.16863 -85.73860 515 ft 4 kts 37°
2026-04-22 03:19 38.16877 -85.73850 515 ft 0 kts 25°